,,,PA_Meas_PMT16A,,PR_Meas_QMR101_102,,RH_Meas_QMH101,,SR_Meas_QMS101,,TA_Meas_QMH101,,GenWind,,GenWind,
date,time,status,PA,status,PR,status,RH,status,SR,status,TA,status,DirAvg,status,SpdAvg,
2009-03-13, 00:00:05,VALID,1001.2,VALID,0,VALID,93.2721,VALID,0,VALID,22.3178,VALID,149,VALID,0.3125,
2009-03-13, 00:01:05,VALID,1001.2,VALID,0,VALID,93.2263,VALID,0,VALID,22.3178,VALID,149,VALID,0.236328,
2009-03-13, 00:02:05,VALID,1001.18,VALID,0,VALID,93.2034,VALID,0,VALID,22.3178,VALID,149,VALID,0.310156,
2009-03-13, 00:03:05,VALID,1001.18,VALID,0,VALID,93.1653,VALID,0,VALID,22.3178,VALID,149,VALID,0.0601562,
2009-03-13, 00:04:05,VALID,1001.17,VALID,0,VALID,93.1805,VALID,0,VALID,22.2983,VALID,149,VALID,0.208203,
2009-03-13, 00:05:05,VALID,1001.17,VALID,0,VALID,93.1348,VALID,0,VALID,22.2983,VALID,149,VALID,0.0980469,
2009-03-13, 00:06:05,VALID,1001.14,VALID,0,VALID,93.1271,VALID,0,VALID,22.3178,VALID,149,VALID,0.0359375,
2009-03-13, 00:07:05,VALID,1001.13,VALID,0,VALID,93.1653,VALID,0,VALID,22.2788,VALID,149,VALID,0.0636719,
2009-03-13, 00:08:05,VALID,1001.13,VALID,0,VALID,93.2721,VALID,0,VALID,22.2983,VALID,149,VALID,0.249219,
2009-03-13, 00:09:05,VALID,1001.13,VALID,0,VALID,93.2568,VALID,0,VALID,22.2788,VALID,149,VALID,0.308984,
2009-03-13, 00:10:05,VALID,1001.11,VALID,0,VALID,93.1805,VALID,0,VALID,22.3,VALID,148,VALID,0.400781,
2009-03-13, 00:11:05,VALID,1001.09,VALID,0,VALID,93.089,VALID,0,VALID,22.2788,VALID,121,VALID,0.730469,
2009-03-13, 00:12:05,VALID,1001.06,VALID,0,VALID,93.0051,VALID,0,VALID,22.2788,VALID,116,VALID,0.74375,
2009-03-13, 00:13:05,VALID,1001.04,VALID,0,VALID,92.9135,VALID,0,VALID,22.2592,VALID,114,VALID,0.744922,
2009-03-13, 00:14:05,VALID,1001.03,VALID,0,VALID,92.9517,VALID,0,VALID,22.2592,VALID,120,VALID,0.676172,
2009-03-13, 00:15:05,VALID,1001.03,VALID,0,VALID,93.0966,VALID,0,VALID,22.2592,VALID,119,VALID,0.670703,
2009-03-13, 00:16:05,VALID,1001.03,VALID,0,VALID,93.089,VALID,0,VALID,22.2397,VALID,119,VALID,0.440234,
2009-03-13, 00:17:05,VALID,1001.01,VALID,0,VALID,93.1348,VALID,0,VALID,22.2397,VALID,119,VALID,0.411719,
2009-03-13, 00:18:05,VALID,1000.99,VALID,0,VALID,93.1577,VALID,0,VALID,22.2397,VALID,119,VALID,0.366406,
2009-03-13, 00:19:05,VALID,1000.98,VALID,0,VALID,93.1729,VALID,0,VALID,22.2202,VALID,119,VALID,0.417969,
2009-03-13, 00:20:05,VALID,1000.98,VALID,0,VALID,93.2034,VALID,0,VALID,22.2007,VALID,119,VALID,0.454688,
2009-03-13, 00:21:05,VALID,1000.95,VALID,0,VALID,93.2492,VALID,0,VALID,22.1812,VALID,119,VALID,0.448438,
2009-03-13, 00:22:05,VALID,1000.9,VALID,0,VALID,93.2568,VALID,0,VALID,22.1812,VALID,142,VALID,0.492578,
2009-03-13, 00:23:05,VALID,1000.87,VALID,0,VALID,93.3942,VALID,0,VALID,22.1812,VALID,152,VALID,0.641406,
2009-03-13, 00:24:05,VALID,1000.82,VALID,0,VALID,93.4628,VALID,0,VALID,22.1812,VALID,153,VALID,0.425391,
2009-03-13, 00:25:05,VALID,1000.79,VALID,0,VALID,93.4857,VALID,0,VALID,22.2007,VALID,169,VALID,0.745313,
2009-03-13, 00:26:05,VALID,1000.76,VALID,0,VALID,93.4552,VALID,0,VALID,22.2007,VALID,177,VALID,0.963281,
2009-03-13, 00:27:05,VALID,1000.75,VALID,0,VALID,93.4247,VALID,0,VALID,22.2397,VALID,162,VALID,1.05039,
2009-03-13, 00:28:05,VALID,1000.69,VALID,0,VALID,93.2797,VALID,0,VALID,22.2397,VALID,154,VALID,1.23711,
2009-03-13, 00:29:05,VALID,1000.64,VALID,0,VALID,93.1577,VALID,0,VALID,22.2804,VALID,148,VALID,1.06172,
2009-03-13, 00:30:05,VALID,1000.61,VALID,0,VALID,93.0508,VALID,0,VALID,22.3178,VALID,152,VALID,0.919922,
2009-03-13, 00:31:05,VALID,1000.59,VALID,0,VALID,92.8754,VALID,0,VALID,22.3178,VALID,156,VALID,0.939453,
2009-03-13, 00:32:05,VALID,1000.55,VALID,0,VALID,92.8372,VALID,0,VALID,22.3178,VALID,164,VALID,0.717969,
2009-03-13, 00:33:05,VALID,1000.53,VALID,0,VALID,92.7838,VALID,0,VALID,22.3178,VALID,164,VALID,0.532031,
2009-03-13, 00:34:05,VALID,1000.51,VALID,0,VALID,92.7609,VALID,0,VALID,22.3178,VALID,164,VALID,0.613281,
2009-03-13, 00:35:05,VALID,1000.47,VALID,0,VALID,92.7075,VALID,0,VALID,22.3178,VALID,164,VALID,0.551562,
2009-03-13, 00:36:05,VALID,1000.44,VALID,0,VALID,92.7609,VALID,0,VALID,22.3178,VALID,164,VALID,0.379297,
2009-03-13, 00:37:05,VALID,1000.43,VALID,0,VALID,92.7838,VALID,0,VALID,22.3178,VALID,164,VALID,0.473437,
2009-03-13, 00:38:05,VALID,1000.38,VALID,0,VALID,92.7304,VALID,0,VALID,22.3178,VALID,152,VALID,0.75625,
2009-03-13, 00:39:05,VALID,1000.4,VALID,0,VALID,92.6312,VALID,0,VALID,22.3178,VALID,138,VALID,0.941016,
2009-03-13, 00:40:05,VALID,1000.37,VALID,0,VALID,92.5778,VALID,0,VALID,22.3373,VALID,134,VALID,0.944922,
2009-03-13, 00:41:05,VALID,1000.33,VALID,0,VALID,92.5397,VALID,0,VALID,22.3178,VALID,135,VALID,0.682813,
2009-03-13, 00:42:05,VALID,1000.34,VALID,0,VALID,92.5015,VALID,0,VALID,22.2983,VALID,142,VALID,0.433594,
2009-03-13, 00:43:05,VALID,1000.33,VALID,0,VALID,92.5473,VALID,0,VALID,22.2788,VALID,142,VALID,0.186719,
2009-03-13, 00:44:05,VALID,1000.29,VALID,0,VALID,92.6312,VALID,0,VALID,22.2788,VALID,143,VALID,0.285937,
2009-03-13, 00:45:05,VALID,1000.26,VALID,0,VALID,92.7304,VALID,0,VALID,22.2788,VALID,149,VALID,0.246094,
2009-03-13, 00:46:05,VALID,1000.28,VALID,0,VALID,92.8067,VALID,0,VALID,22.2788,VALID,149,VALID,0.00664063,
2009-03-13, 00:47:05,VALID,1000.24,VALID,0,VALID,92.8372,VALID,0,VALID,22.2592,VALID,122,VALID,0.374219,
2009-03-13, 00:48:05,VALID,1000.23,VALID,0,VALID,92.7685,VALID,0,VALID,22.2609,VALID,119,VALID,0.108203,
2009-03-13, 00:49:05,VALID,1000.23,VALID,0,VALID,92.7457,VALID,0,VALID,22.2202,VALID,119,VALID,0,
2009-03-13, 00:50:05,VALID,1000.23,VALID,0,VALID,92.6999,VALID,0,VALID,22.2007,VALID,119,VALID,0,
2009-03-13, 00:51:05,VALID,1000.24,VALID,0,VALID,92.8754,VALID,0,VALID,22.2007,VALID,119,VALID,0,
2009-03-13, 00:52:05,VALID,1000.23,VALID,0,VALID,93.0051,VALID,0,VALID,22.1617,VALID,119,VALID,0,
2009-03-13, 00:53:05,VALID,1000.23,VALID,0,VALID,93.1577,VALID,0,VALID,22.1617,VALID,119,VALID,0,
2009-03-13, 00:54:05,VALID,1000.2,VALID,0,VALID,93.1271,VALID,0,VALID,22.1422,VALID,119,VALID,0,
2009-03-13, 00:55:05,VALID,1000.24,VALID,0,VALID,93.1043,VALID,0,VALID,22.1422,VALID,119,VALID,0,
2009-03-13, 00:56:05,VALID,1000.2,VALID,0,VALID,93.2187,VALID,0,VALID,22.1227,VALID,119,VALID,0.0210938,
2009-03-13, 00:57:05,VALID,1000.22,VALID,0,VALID,93.4018,VALID,0,VALID,22.1227,VALID,119,VALID,0,
2009-03-13, 00:58:05,VALID,1000.2,VALID,0,VALID,93.4934,VALID,0,VALID,22.1422,VALID,119,VALID,0.211328,
2009-03-13, 00:59:05,VALID,1000.17,VALID,0,VALID,93.5315,VALID,0,VALID,22.1227,VALID,119,VALID,0.270312,
2009-03-13, 01:00:05,VALID,1000.21,VALID,0,VALID,93.6002,VALID,0,VALID,22.1227,VALID,119,VALID,0.387891,
2009-03-13, 01:01:05,VALID,1000.18,VALID,0,VALID,93.6231,VALID,0,VALID,22.1227,VALID,119,VALID,0.383984,
2009-03-13, 01:02:05,VALID,1000.2,VALID,0,VALID,93.6307,VALID,0,VALID,22.1422,VALID,119,VALID,0.221094,
2009-03-13, 01:03:05,VALID,1000.17,VALID,0,VALID,93.5849,VALID,0,VALID,22.1422,VALID,119,VALID,0.180859,
2009-03-13, 01:04:05,VALID,1000.19,VALID,0,VALID,93.4323,VALID,0,VALID,22.1032,VALID,119,VALID,0.0304688,
2009-03-13, 01:05:05,VALID,1000.19,VALID,0,VALID,93.4018,VALID,0,VALID,22.0837,VALID,119,VALID,0.246094,
2009-03-13, 01:06:05,VALID,1000.19,VALID,0,VALID,93.5544,VALID,0,VALID,22.0447,VALID,351,VALID,0.598828,
2009-03-13, 01:07:05,VALID,1000.21,VALID,0,VALID,93.6383,VALID,0,VALID,22.0447,VALID,341,VALID,0.675,
2009-03-13, 01:08:05,VALID,1000.17,VALID,0,VALID,93.6841,VALID,0,VALID,22.0252,VALID,341,VALID,0.433984,
2009-03-13, 01:09:05,VALID,1000.19,VALID,0,VALID,93.6841,VALID,0,VALID,22.0057,VALID,341,VALID,0.359766,
2009-03-13, 01:10:05,VALID,1000.15,VALID,0,VALID,93.6917,VALID,0,VALID,21.9862,VALID,341,VALID,0.517969,
2009-03-13, 01:11:05,VALID,1000.16,VALID,0,VALID,93.7528,VALID,0,VALID,21.9472,VALID,341,VALID,0.345703,
2009-03-13, 01:12:04,VALID,1000.12,VALID,0,VALID,93.852,VALID,0,VALID,21.9667,VALID,341,VALID,0.177344,
2009-03-13, 01:13:04,VALID,1000.1,VALID,0,VALID,93.8291,VALID,0,VALID,21.9277,VALID,341,VALID,0,
2009-03-13, 01:14:04,VALID,1000.06,VALID,0,VALID,93.9359,VALID,0,VALID,21.9488,VALID,341,VALID,0.0640625,
2009-03-13, 01:15:04,VALID,1000.03,VALID,0,VALID,93.9588,VALID,0,VALID,21.8887,VALID,341,VALID,0.350781,
2009-03-13, 01:16:04,VALID,999.99,VALID,0,VALID,93.9893,VALID,0,VALID,21.8692,VALID,79,VALID,0.527734,
2009-03-13, 01:17:04,VALID,999.986,VALID,0,VALID,94.2105,VALID,0,VALID,21.8692,VALID,79,VALID,0.517578,
2009-03-13, 01:18:04,VALID,999.946,VALID,0,VALID,94.2716,VALID,0,VALID,21.8887,VALID,79,VALID,0.585547,
2009-03-13, 01:19:04,VALID,999.941,VALID,0,VALID,94.264,VALID,0,VALID,21.8692,VALID,79,VALID,0.653906,
2009-03-13, 01:20:04,VALID,999.927,VALID,0,VALID,94.4394,VALID,0,VALID,21.8887,VALID,63,VALID,0.843359,
2009-03-13, 01:21:04,VALID,999.937,VALID,0,VALID,94.4242,VALID,0,VALID,21.9082,VALID,58,VALID,0.799219,
2009-03-13, 01:22:04,VALID,999.916,VALID,0,VALID,94.4089,VALID,0,VALID,21.9082,VALID,53,VALID,0.816016,
2009-03-13, 01:23:04,VALID,999.899,VALID,0,VALID,94.3403,VALID,0,VALID,21.9277,VALID,52,VALID,0.722656,
2009-03-13, 01:24:04,VALID,999.907,VALID,0,VALID,94.325,VALID,0,VALID,21.9277,VALID,43,VALID,0.690234,
2009-03-13, 01:25:04,VALID,999.902,VALID,0,VALID,94.2868,VALID,0,VALID,21.9277,VALID,42,VALID,0.304688,
2009-03-13, 01:26:04,VALID,999.904,VALID,0,VALID,94.2792,VALID,0,VALID,21.9082,VALID,42,VALID,0.257031,
2009-03-13, 01:27:04,VALID,999.918,VALID,0,VALID,94.264,VALID,0,VALID,21.9082,VALID,42,VALID,0,
2009-03-13, 01:28:04,VALID,999.92,VALID,0,VALID,94.2334,VALID,0,VALID,21.9082,VALID,42,VALID,0,
2009-03-13, 01:29:04,VALID,999.91,VALID,0,VALID,94.3403,VALID,0,VALID,21.8887,VALID,42,VALID,0.191797,
2009-03-13, 01:30:04,VALID,999.901,VALID,0,VALID,94.4318,VALID,0,VALID,21.9082,VALID,42,VALID,0.325781,
2009-03-13, 01:31:04,VALID,999.885,VALID,0,VALID,94.4471,VALID,0,VALID,21.9277,VALID,42,VALID,0.237891,
2009-03-13, 01:32:04,VALID,999.903,VALID,0,VALID,94.5234,VALID,0,VALID,21.9472,VALID,42,VALID,0.309766,
2009-03-13, 01:33:04,VALID,999.866,VALID,0,VALID,94.5844,VALID,0,VALID,21.9667,VALID,42,VALID,0.314453,
2009-03-13, 01:34:04,VALID,999.867,VALID,0,VALID,94.5768,VALID,0,VALID,21.9862,VALID,42,VALID,0.358984,
2009-03-13, 01:35:04,VALID,999.815,VALID,0,VALID,94.6302,VALID,0,VALID,22.0057,VALID,124,VALID,0.521875,
2009-03-13, 01:36:04,VALID,999.824,VALID,0,VALID,94.6149,VALID,0,VALID,22.0252,VALID,134,VALID,0.678906,
2009-03-13, 01:37:04,VALID,999.859,VALID,0,VALID,94.6073,VALID,0,VALID,22.0447,VALID,135,VALID,0.566797,
2009-03-13, 01:38:04,VALID,999.834,VALID,0,VALID,94.5462,VALID,0,VALID,22.0642,VALID,135,VALID,0.503906,
2009-03-13, 01:39:04,VALID,999.84,VALID,0,VALID,94.4776,VALID,0,VALID,22.0642,VALID,140,VALID,0.480078,
2009-03-13, 01:40:04,VALID,999.874,VALID,0,VALID,94.4165,VALID,0,VALID,22.0837,VALID,140,VALID,0.1375,
2009-03-13, 01:41:04,VALID,999.851,VALID,0,VALID,94.3937,VALID,0,VALID,22.0837,VALID,141,VALID,0.335156,
2009-03-13, 01:42:04,VALID,999.845,VALID,0,VALID,94.3784,VALID,0,VALID,22.1032,VALID,141,VALID,0.0898438,
2009-03-13, 01:43:04,VALID,999.852,VALID,0,VALID,94.3479,VALID,0,VALID,22.1032,VALID,141,VALID,0,
2009-03-13, 01:44:04,VALID,999.846,VALID,0,VALID,94.3403,VALID,0,VALID,22.1032,VALID,141,VALID,0.313672,
2009-03-13, 01:45:04,VALID,999.832,VALID,0,VALID,94.2258,VALID,0,VALID,22.1227,VALID,141,VALID,0.321875,
2009-03-13, 01:46:04,VALID,999.802,VALID,0,VALID,94.2563,VALID,0,VALID,22.1227,VALID,96,VALID,0.503125,
2009-03-13, 01:47:04,VALID,999.813,VALID,0,VALID,94.2105,VALID,0,VALID,22.1227,VALID,90,VALID,0.488672,
2009-03-13, 01:48:04,VALID,999.77,VALID,0,VALID,94.2029,VALID,0,VALID,22.1227,VALID,90,VALID,0.376563,
2009-03-13, 01:49:04,VALID,999.78,VALID,0,VALID,94.1571,VALID,0,VALID,22.1227,VALID,90,VALID,0.232031,
2009-03-13, 01:50:04,VALID,999.751,VALID,0,VALID,94.1877,VALID,0,VALID,22.121,VALID,90,VALID,0.317578,
2009-03-13, 01:51:04,VALID,999.701,VALID,0,VALID,94.1571,VALID,0,VALID,22.1422,VALID,90,VALID,0.453125,
2009-03-13, 01:52:04,VALID,999.69,VALID,0,VALID,94.1495,VALID,0,VALID,22.1227,VALID,87,VALID,0.533984,
2009-03-13, 01:53:04,VALID,999.666,VALID,0,VALID,94.1495,VALID,0,VALID,22.1422,VALID,80,VALID,0.542969,
2009-03-13, 01:54:04,VALID,999.656,VALID,0,VALID,94.1266,VALID,0,VALID,22.1405,VALID,80,VALID,0.479688,
2009-03-13, 01:55:04,VALID,999.686,VALID,0,VALID,94.1114,VALID,0,VALID,22.1617,VALID,49,VALID,0.540625,
2009-03-13, 01:56:04,VALID,999.681,VALID,0,VALID,94.0961,VALID,0,VALID,22.1405,VALID,40,VALID,0.697656,
2009-03-13, 01:57:04,VALID,999.678,VALID,0,VALID,94.0808,VALID,0,VALID,22.1617,VALID,30,VALID,0.749609,
2009-03-13, 01:58:04,VALID,999.662,VALID,0,VALID,94.0274,VALID,0,VALID,22.1617,VALID,21,VALID,1,
2009-03-13, 01:59:04,VALID,999.683,VALID,0,VALID,93.9511,VALID,0,VALID,22.1422,VALID,19,VALID,0.857422,
2009-03-13, 02:00:04,VALID,999.696,VALID,0,VALID,93.9054,VALID,0,VALID,22.1227,VALID,19,VALID,0.754687,
2009-03-13, 02:01:04,VALID,999.713,VALID,0,VALID,93.9054,VALID,0,VALID,22.1422,VALID,19,VALID,0.715625,
2009-03-13, 02:02:04,VALID,999.667,VALID,0,VALID,93.8596,VALID,0,VALID,22.1422,VALID,15,VALID,0.578125,
2009-03-13, 02:03:04,VALID,999.674,VALID,0,VALID,93.8672,VALID,0,VALID,22.1634,VALID,11,VALID,0.482812,
2009-03-13, 02:04:04,VALID,999.657,VALID,0,VALID,93.8367,VALID,0,VALID,22.1439,VALID,11,VALID,0.335547,
2009-03-13, 02:05:04,VALID,999.64,VALID,0,VALID,93.8291,VALID,0,VALID,22.1227,VALID,11,VALID,0.381641,
2009-03-13, 02:06:04,VALID,999.578,VALID,0,VALID,93.913,VALID,0,VALID,22.1227,VALID,11,VALID,0.311328,
2009-03-13, 02:07:04,VALID,999.572,VALID,0,VALID,93.8748,VALID,0,VALID,22.1439,VALID,11,VALID,0.414844,
2009-03-13, 02:08:04,VALID,999.547,VALID,0,VALID,93.9054,VALID,0,VALID,22.1227,VALID,11,VALID,0.312891,
2009-03-13, 02:09:04,VALID,999.528,VALID,0,VALID,93.913,VALID,0,VALID,22.1439,VALID,11,VALID,0.239844,
2009-03-13, 02:10:04,VALID,999.527,VALID,0,VALID,93.9206,VALID,0,VALID,22.1227,VALID,11,VALID,0.0691406,
2009-03-13, 02:11:04,VALID,999.524,VALID,0,VALID,93.8977,VALID,0,VALID,22.1227,VALID,11,VALID,0.191016,
2009-03-13, 02:12:04,VALID,999.524,VALID,0,VALID,93.8977,VALID,0,VALID,22.1227,VALID,11,VALID,0.167187,
2009-03-13, 02:13:04,VALID,999.521,VALID,0,VALID,93.9511,VALID,0,VALID,22.1227,VALID,11,VALID,0.173438,
2009-03-13, 02:14:04,VALID,999.544,VALID,0,VALID,93.9511,VALID,0,VALID,22.1032,VALID,11,VALID,0.053125,
2009-03-13, 02:15:04,VALID,999.548,VALID,0,VALID,93.9588,VALID,0,VALID,22.1032,VALID,11,VALID,0,
2009-03-13, 02:16:04,VALID,999.545,VALID,0,VALID,93.9893,VALID,0,VALID,22.1032,VALID,11,VALID,0,
2009-03-13, 02:17:04,VALID,999.546,VALID,0,VALID,93.9893,VALID,0,VALID,22.1032,VALID,11,VALID,0,
2009-03-13, 02:18:04,VALID,999.526,VALID,0,VALID,94.0198,VALID,0,VALID,22.082,VALID,11,VALID,0,
2009-03-13, 02:19:04,VALID,999.468,VALID,0,VALID,94.0351,VALID,0,VALID,22.1032,VALID,11,VALID,0.142188,
2009-03-13, 02:20:04,VALID,999.48,VALID,0,VALID,94.0351,VALID,0,VALID,22.1015,VALID,11,VALID,0.351563,
2009-03-13, 02:21:04,VALID,999.459,VALID,0,VALID,94.0503,VALID,0,VALID,22.1015,VALID,13,VALID,0.440234,
2009-03-13, 02:22:04,VALID,999.486,VALID,0,VALID,94.0503,VALID,0,VALID,22.1227,VALID,13,VALID,0.369531,
2009-03-13, 02:23:04,VALID,999.476,VALID,0,VALID,94.0045,VALID,0,VALID,22.1032,VALID,13,VALID,0.393359,
2009-03-13, 02:24:04,VALID,999.503,VALID,0,VALID,93.9893,VALID,0,VALID,22.1015,VALID,13,VALID,0.185156,
2009-03-13, 02:25:04,VALID,999.52,VALID,0,VALID,93.8977,VALID,0,VALID,22.1227,VALID,13,VALID,0,
2009-03-13, 02:26:04,VALID,999.53,VALID,0,VALID,93.8825,VALID,0,VALID,22.1032,VALID,13,VALID,0,
2009-03-13, 02:27:04,VALID,999.547,VALID,0,VALID,93.852,VALID,0,VALID,22.0625,VALID,13,VALID,0.615625,
2009-03-13, 02:28:04,VALID,999.548,VALID,0,VALID,93.9511,VALID,0,VALID,22.0625,VALID,13,VALID,0.660547,
2009-03-13, 02:29:04,VALID,999.573,VALID,0,VALID,93.9969,VALID,0,VALID,22.0837,VALID,13,VALID,0.579297,
2009-03-13, 02:30:04,VALID,999.578,VALID,0,VALID,93.8825,VALID,0,VALID,22.0837,VALID,13,VALID,0.820313,
2009-03-13, 02:31:04,VALID,999.591,VALID,0,VALID,93.9435,VALID,0,VALID,22.0642,VALID,13,VALID,0.660547,
2009-03-13, 02:32:04,VALID,999.588,VALID,0,VALID,93.9511,VALID,0,VALID,22.0235,VALID,13,VALID,0.516406,
2009-03-13, 02:33:04,VALID,999.577,VALID,0,VALID,93.9664,VALID,0,VALID,22.004,VALID,13,VALID,0.413281,
2009-03-13, 02:34:04,VALID,999.603,VALID,0,VALID,93.9817,VALID,0,VALID,22.004,VALID,13,VALID,0.408594,
2009-03-13, 02:35:04,VALID,999.624,VALID,0,VALID,94.0885,VALID,0,VALID,22.004,VALID,13,VALID,0.490234,
2009-03-13, 02:36:04,VALID,999.613,VALID,0,VALID,94.1648,VALID,0,VALID,22.0252,VALID,72,VALID,0.586328,
2009-03-13, 02:37:04,VALID,999.662,VALID,0,VALID,94.2029,VALID,0.112286,VALID,22.0252,VALID,73,VALID,0.731641,
2009-03-13, 02:38:04,VALID,999.669,VALID,0,VALID,94.2105,VALID,0,VALID,22.0252,VALID,73,VALID,0.598437,
2009-03-13, 02:39:04,VALID,999.704,VALID,0,VALID,94.2334,VALID,0,VALID,22.0252,VALID,84,VALID,0.558984,
2009-03-13, 02:40:04,VALID,999.71,VALID,0,VALID,94.2411,VALID,0,VALID,22.0235,VALID,88,VALID,0.391797,
2009-03-13, 02:41:04,VALID,999.722,VALID,0,VALID,94.2716,VALID,0,VALID,22.0252,VALID,88,VALID,0.340234,
2009-03-13, 02:42:04,VALID,999.737,VALID,0,VALID,94.3097,VALID,0,VALID,22.0447,VALID,88,VALID,0.314063,
2009-03-13, 02:43:04,VALID,999.73,VALID,0,VALID,94.325,VALID,0,VALID,22.0252,VALID,88,VALID,0.419922,
2009-03-13, 02:44:04,VALID,999.729,VALID,0,VALID,94.325,VALID,0,VALID,22.0235,VALID,95,VALID,0.508203,
2009-03-13, 02:45:04,VALID,999.733,VALID,0,VALID,94.3479,VALID,0,VALID,22.0447,VALID,96,VALID,0.423438,
2009-03-13, 02:46:04,VALID,999.76,VALID,0,VALID,94.3784,VALID,0,VALID,22.0447,VALID,96,VALID,0.335156,
2009-03-13, 02:47:04,VALID,999.731,VALID,0,VALID,94.386,VALID,0,VALID,22.0252,VALID,114,VALID,0.489844,
2009-03-13, 02:48:04,VALID,999.749,VALID,0,VALID,94.3708,VALID,0,VALID,22.0447,VALID,119,VALID,0.612109,
2009-03-13, 02:49:04,VALID,999.734,VALID,0,VALID,94.3555,VALID,0,VALID,22.0642,VALID,144,VALID,0.7875,
2009-03-13, 02:50:04,VALID,999.702,VALID,0,VALID,94.3631,VALID,0,VALID,22.0642,VALID,139,VALID,0.716406,
2009-03-13, 02:51:04,VALID,999.706,VALID,0,VALID,94.3555,VALID,0,VALID,22.0837,VALID,149,VALID,1.0918,
2009-03-13, 02:52:04,VALID,999.704,VALID,0,VALID,94.3479,VALID,0,VALID,22.1032,VALID,153,VALID,0.880078,
2009-03-13, 02:53:04,VALID,999.722,VALID,0,VALID,94.3174,VALID,0,VALID,22.1422,VALID,155,VALID,0.889453,
2009-03-13, 02:54:04,VALID,999.709,VALID,0,VALID,94.2868,VALID,0,VALID,22.1405,VALID,164,VALID,0.916016,
2009-03-13, 02:55:04,VALID,999.666,VALID,0,VALID,94.2487,VALID,0.112286,VALID,22.1812,VALID,162,VALID,0.660937,
2009-03-13, 02:56:04,VALID,999.714,VALID,0,VALID,94.2334,VALID,0,VALID,22.1795,VALID,138,VALID,0.484375,
2009-03-13, 02:57:04,VALID,999.668,VALID,0,VALID,94.1648,VALID,0,VALID,22.2202,VALID,137,VALID,0.141797,
2009-03-13, 02:58:04,VALID,999.677,VALID,0,VALID,94.1114,VALID,0,VALID,22.2202,VALID,180,VALID,0.396094,
2009-03-13, 02:59:04,VALID,999.652,VALID,0,VALID,94.0045,VALID,0,VALID,22.2202,VALID,315,VALID,0.712109,
2009-03-13, 03:00:04,VALID,999.638,VALID,0,VALID,93.9893,VALID,0,VALID,22.2202,VALID,313,VALID,0.591406,
2009-03-13, 03:01:04,VALID,999.658,VALID,0,VALID,93.9969,VALID,0,VALID,22.2007,VALID,311,VALID,0.448047,
2009-03-13, 03:02:04,VALID,999.635,VALID,0,VALID,93.974,VALID,0,VALID,22.1812,VALID,311,VALID,0,
2009-03-13, 03:03:04,VALID,999.653,VALID,0,VALID,94.0351,VALID,0,VALID,22.1617,VALID,311,VALID,0.181641,
2009-03-13, 03:04:04,VALID,999.656,VALID,0,VALID,94.0503,VALID,0,VALID,22.1617,VALID,164,VALID,0.598047,
2009-03-13, 03:05:04,VALID,999.692,VALID,0,VALID,94.0808,VALID,0,VALID,22.1617,VALID,159,VALID,0.808984,
2009-03-13, 03:06:04,VALID,999.688,VALID,0,VALID,94.0808,VALID,0,VALID,22.1812,VALID,153,VALID,0.946875,
2009-03-13, 03:07:04,VALID,999.721,VALID,0,VALID,93.9511,VALID,0,VALID,22.1812,VALID,139,VALID,1.29219,
2009-03-13, 03:08:04,VALID,999.728,VALID,0,VALID,93.8443,VALID,0,VALID,22.2202,VALID,129,VALID,1.05469,
2009-03-13, 03:09:04,VALID,999.743,VALID,0,VALID,93.8214,VALID,0,VALID,22.2397,VALID,130,VALID,0.664453,
2009-03-13, 03:10:04,VALID,999.794,VALID,0,VALID,93.707,VALID,0,VALID,22.2397,VALID,129,VALID,0.496094,
2009-03-13, 03:11:04,VALID,999.789,VALID,0,VALID,93.6688,VALID,0.112286,VALID,22.2381,VALID,128,VALID,0.497266,
2009-03-13, 03:12:04,VALID,999.807,VALID,0,VALID,93.6383,VALID,0,VALID,22.2592,VALID,120,VALID,0.469922,
2009-03-13, 03:13:04,VALID,999.823,VALID,0,VALID,93.6536,VALID,0,VALID,22.2788,VALID,98,VALID,0.523438,
2009-03-13, 03:14:04,VALID,999.831,VALID,0,VALID,93.6612,VALID,0,VALID,22.2788,VALID,94,VALID,0.533984,
2009-03-13, 03:15:04,VALID,999.845,VALID,0,VALID,93.6307,VALID,0,VALID,22.2788,VALID,94,VALID,0.419531,
2009-03-13, 03:16:04,VALID,999.851,VALID,0,VALID,93.6536,VALID,0,VALID,22.2788,VALID,98,VALID,0.450391,
2009-03-13, 03:17:04,VALID,999.875,VALID,0,VALID,93.6078,VALID,0,VALID,22.2788,VALID,98,VALID,0.468359,
2009-03-13, 03:18:04,VALID,999.91,VALID,0,VALID,93.6231,VALID,0,VALID,22.2788,VALID,98,VALID,0.334375,
2009-03-13, 03:19:04,VALID,999.931,VALID,0,VALID,93.6154,VALID,0,VALID,22.2592,VALID,98,VALID,0.105859,
2009-03-13, 03:20:04,VALID,999.966,VALID,0,VALID,93.5926,VALID,0,VALID,22.2804,VALID,98,VALID,0,
2009-03-13, 03:21:04,VALID,999.938,VALID,0,VALID,93.5468,VALID,0,VALID,22.2397,VALID,98,VALID,0,
2009-03-13, 03:22:04,VALID,999.953,VALID,0,VALID,93.5163,VALID,0,VALID,22.2202,VALID,98,VALID,0.419141,
2009-03-13, 03:23:04,VALID,999.988,VALID,0,VALID,93.5163,VALID,0,VALID,22.2202,VALID,42,VALID,0.668359,
2009-03-13, 03:24:04,VALID,999.961,VALID,0,VALID,93.562,VALID,0,VALID,22.199,VALID,40,VALID,0.547656,
2009-03-13, 03:25:04,VALID,999.945,VALID,0,VALID,93.5773,VALID,0,VALID,22.2007,VALID,40,VALID,0.558984,
2009-03-13, 03:26:04,VALID,999.992,VALID,0,VALID,93.646,VALID,0,VALID,22.199,VALID,40,VALID,0.582812,
2009-03-13, 03:27:04,VALID,999.981,VALID,0,VALID,93.707,VALID,0,VALID,22.2007,VALID,40,VALID,0.655469,
2009-03-13, 03:28:04,VALID,999.978,VALID,0,VALID,93.6612,VALID,0,VALID,22.2007,VALID,40,VALID,0.563672,
2009-03-13, 03:29:04,VALID,999.992,VALID,0,VALID,93.707,VALID,0.112286,VALID,22.1812,VALID,39,VALID,0.662109,
2009-03-13, 03:30:04,VALID,1000.03,VALID,0,VALID,93.7299,VALID,0,VALID,22.1812,VALID,36,VALID,0.661719,
2009-03-13, 03:31:04,VALID,1000.04,VALID,0,VALID,93.7451,VALID,0,VALID,22.1812,VALID,35,VALID,0.632813,
2009-03-13, 03:32:04,VALID,1000.02,VALID,0,VALID,93.7528,VALID,0,VALID,22.1617,VALID,35,VALID,0.398047,
2009-03-13, 03:33:04,VALID,1000.03,VALID,0,VALID,93.7528,VALID,0,VALID,22.1617,VALID,35,VALID,0.311719,
2009-03-13, 03:34:04,VALID,1000.02,VALID,0,VALID,93.7451,VALID,0,VALID,22.1617,VALID,35,VALID,0.39375,
2009-03-13, 03:35:04,VALID,1000.03,VALID,0,VALID,93.7223,VALID,0,VALID,22.1422,VALID,35,VALID,0.692578,
2009-03-13, 03:36:04,VALID,1000.02,VALID,0,VALID,93.7451,VALID,0,VALID,22.1617,VALID,36,VALID,0.791406,
2009-03-13, 03:37:04,VALID,999.999,VALID,0,VALID,93.7223,VALID,0,VALID,22.121,VALID,42,VALID,0.646875,
2009-03-13, 03:38:04,VALID,999.986,VALID,0,VALID,93.7299,VALID,0,VALID,22.1617,VALID,48,VALID,0.758203,
2009-03-13, 03:39:04,VALID,999.977,VALID,0,VALID,93.7604,VALID,0,VALID,22.1617,VALID,57,VALID,0.728516,
2009-03-13, 03:40:04,VALID,999.953,VALID,0,VALID,93.8062,VALID,0,VALID,22.1617,VALID,58,VALID,0.421484,
2009-03-13, 03:41:04,VALID,999.894,VALID,0,VALID,93.8214,VALID,0,VALID,22.16,VALID,59,VALID,0.389453,
2009-03-13, 03:42:04,VALID,999.915,VALID,0,VALID,93.8443,VALID,0.112286,VALID,22.16,VALID,60,VALID,0.53125,
2009-03-13, 03:43:04,VALID,999.892,VALID,0,VALID,93.8596,VALID,0.112286,VALID,22.16,VALID,60,VALID,0.487891,
2009-03-13, 03:44:04,VALID,999.893,VALID,0,VALID,93.8291,VALID,0.112286,VALID,22.16,VALID,60,VALID,0.369922,
2009-03-13, 03:45:04,VALID,999.878,VALID,0,VALID,93.8672,VALID,0,VALID,22.121,VALID,60,VALID,0.357812,
2009-03-13, 03:46:04,VALID,999.916,VALID,0,VALID,93.913,VALID,0,VALID,22.1617,VALID,60,VALID,0.362891,